TAPIOLA Weather Reports


time (UTC)temp
F
wind
direction
speed
knots
gust
knots
rain 1hr
in
rain 24hr
in
rain mn
in
humidity
%
barometer
mb
20260508124730 57 171 7.8 12.2 0.00 0.00 0.00 33 1026.0
20260508122730 60 9 4.3 10.4 0.00 0.00 0.00 19 1026.1
20260508120730 60 36 7.0 15.6 0.00 0.00 0.00 19 1026.1
20260508114729 60 28 7.0 16.5 0.00 0.00 0.00 23 1026.2
20260508112730 59 29 10.4 18.2 0.00 0.00 0.00 22 1026.3
20260508110729 58 348 7.8 15.6 0.00 0.00 0.00 24 1026.3
20260508104729 58 341 8.7 15.6 0.00 0.00 0.00 24 1026.3
20260508102729 58 40 7.8 13.0 0.00 0.00 0.00 30 1026.2
20260508100729 57 26 9.6 17.4 0.00 0.00 0.00 27 1026.2
20260508094729 56 6 7.8 14.8 0.00 0.00 0.00 25 1026.1
20260508092729 56 360 6.1 13.0 0.00 0.00 0.00 32 1026.0
20260508090729 55 360 6.1 15.6 0.00 0.00 0.00 29 1026.2
20260508084729 54 356 11.3 15.6 0.00 0.00 0.00 31 1026.2
20260508082729 54 1 9.6 16.5 0.00 0.00 0.00 31 1026.1
20260508080730 53 25 9.6 17.4 0.00 0.00 0.00 31 1026.1
20260508072729 52 6 9.6 16.5 0.00 0.00 0.00 36 1025.9
20260508070730 50 353 11.3 16.5 0.00 0.00 0.00 37 1025.8
20260508064729 49 356 9.6 17.4 0.00 0.00 0.00 39 1025.7
20260508062728 48 351 11.3 16.5 0.00 0.00 0.00 42 1025.5
20260508060729 47 349 12.2 17.4 0.00 0.00 0.00 45 1025.3
20260508054729 47 353 8.7 15.6 0.00 0.00 0.00 46 1025.1
20260508052729 46 355 7.8 13.9 0.00 0.00 0.00 52 1024.9
20260508050728 44 351 10.4 15.6 0.00 0.00 0.00 53 1024.7
20260508044729 43 355 8.7 13.9 0.00 0.00 0.00 55 1024.5
20260508040728 41 350 7.8 11.3 0.00 0.00 0.00 58 1024.1
20260508034728 40 343 6.1 8.7 0.00 0.00 0.00 59 1023.9
20260508032728 39 341 6.1 9.6 0.00 0.00 0.00 60 1023.7
20260508030728 38 348 6.1 9.6 0.00 0.00 0.00 61 1023.5
20260508024727 38 347 6.1 8.7 0.00 0.00 0.00 61 1023.2
20260508022727 38 347 6.1 9.6 0.00 0.00 0.00 60 1022.9
20260508020728 39 346 7.0 9.6 0.00 0.00 0.00 59 1022.6
20260508014728 40 343 7.8 10.4 0.00 0.00 0.00 57 1022.4
20260508012727 40 348 9.6 13.0 0.00 0.00 0.00 55 1022.1
20260508010728 41 348 9.6 13.9 0.00 0.00 0.00 53 1021.9
20260508004727 41 348 8.7 13.0 0.00 0.00 0.00 53 1021.7
20260508002727 42 344 10.4 13.9 0.00 0.00 0.00 51 1021.4
20260508000728 42 345 8.7 13.9 0.00 0.00 0.00 51 1021.2
20260507234728 43 341 7.8 11.3 0.00 0.00 0.00 50 1021.0
20260507232727 43 338 7.8 11.3 0.00 0.00 0.00 50 1020.7
20260507230727 43 338 7.0 11.3 0.00 0.00 0.00 49 1020.4
20260507224726 44 338 8.7 12.2 0.00 0.00 0.00 47 1020.1
20260507222727 44 340 7.8 12.2 0.00 0.00 0.00 46 1020.0
20260507220727 44 337 7.8 11.3 0.00 0.00 0.00 46 1019.8
20260507214727 42 327 7.0 10.4 0.00 0.00 0.00 51 1019.5
20260507212727 41 325 6.1 9.6 0.00 0.00 0.00 49 1019.3
20260507210726 41 333 5.2 7.8 0.00 0.00 0.00 49 1019.0
20260507204727 43 336 7.8 10.4 0.00 0.00 0.00 45 1018.7
20260507202727 40 337 7.8 10.4 0.00 0.00 0.00 50 1018.5
20260507200727 40 308 4.3 6.1 0.00 0.00 0.00 49 1018.1
20260507194727 41 291 2.6 4.3 0.00 0.00 0.00 49 1017.9
20260507192726 43 255 3.5 5.2 0.00 0.00 0.00 44 1017.6
20260507190726 44 263 3.5 5.2 0.00 0.00 0.00 45 1017.4
20260507184727 46 237 4.3 7.8 0.00 0.00 0.00 39 1017.2
20260507182726 48 214 5.2 7.8 0.00 0.00 0.00 36 1017.0
20260507180725 49 217 5.2 9.6 0.00 0.00 0.00 33 1016.9
20260507174726 50 215 5.2 10.4 0.00 0.00 0.00 33 1016.9
20260507172725 50 205 7.0 9.6 0.00 0.00 0.00 33 1016.7
20260507170725 50 203 7.0 11.3 0.00 0.00 0.00 30 1016.7
20260507162726 50 202 7.8 13.0 0.00 0.00 0.00 31 1016.5
20260507160726 50 192 7.0 13.0 0.00 0.00 0.00 37 1016.4
20260507154726 50 178 7.0 10.4 0.00 0.00 0.00 34 1016.3
20260507152725 51 177 5.2 11.3 0.00 0.00 0.00 35 1016.2
20260507150727 51 177 6.1 11.3 0.00 0.00 0.00 35 1016.2
20260507142726 54 166 7.0 12.2 0.00 0.00 0.00 26 1016.1
20260507140725 54 170 7.8 12.2 0.00 0.00 0.00 24 1016.0
20260507134726 54 157 7.0 12.2 0.00 0.00 0.00 23 1015.9
20260507132725 55 182 6.1 9.6 0.00 0.00 0.00 23 1015.8
20260507130726 55 144 7.0 11.3 0.00 0.00 0.00 24 1015.8